Location: Chihuahua
(28.6330°N, 106.0830°W)
Time: 09:28:51
(UTC-07:00)

Daily predictions for brighter satellites

Satellite Brightness Start Highest point End
(mag) Time Altitude Azimuth Time Altitude Azimuth Time Altitude Azimuth
METEOR-M 4.2 19:12:03 10° SSE 19:17:22 85° ENE 19:22:44 10° N
Cosmos 1892 2.9 19:19:00 10° S 19:22:42 51° E 19:26:26 10° NNE
Okean 1-7 3.0 19:18:50 10° N 19:23:09 79° E 19:27:30 10° S
Meteor 1-26 Rocket 4.4 19:17:45 10° N 19:23:39 84° E 19:29:33 10° S
ALOS 2.7 19:21:11 10° SSE 19:25:37 45° ENE 19:30:04 10° N
Cosmos 1340 Rocket 3.2 19:23:51 10° SSW 19:27:48 69° W 19:31:48 10° N
Cosmos 2181 Rocket 4.2 19:28:56 10° N 19:35:22 85° W 19:41:41 10° S
H-2A R/B 3.0 19:32:49 10° SSE 19:36:22 46° ENE 19:39:56 10° N
Cosmos 1356 Rocket 3.6 19:35:48 10° S 19:40:00 79° W 19:44:17 10° N
USA 186 2.0 19:37:21 10° SSE 19:40:16 45° ENE 19:43:22 10° N
Cosmos 1452 Rocket 3.8 19:35:47 10° S 19:40:43 44° ESE 19:45:42 10° NNE
Cosmos 2074 Rocket 4.0 19:35:39 10° S 19:41:55 77° E 19:48:11 10° N
Cosmos 1782 3.9 19:39:59 10° NNE 19:43:25 27° E 19:46:08 14° SE
Cosmos 1674 Rocket 4.4 19:43:01 10° NNE 19:47:00 32° E 19:50:12 14° SE
Resurs 01 Rocket 3.7 19:48:04 10° SSW 19:51:47 27° W 19:55:30 10° NW
OAO 3 Rocket 3.2 19:47:24 10° WSW 19:52:22 77° SSE 19:57:19 10° ENE
Cosmos 1184 Rocket 4.5 19:52:57 17° E 19:53:01 17° E 19:55:13 10° NE
ISS -1.0 19:50:13 10° WSW 19:53:03 27° NW 19:55:54 10° NNE
Orbus 7S 4.1 19:45:47 10° W 19:53:20 69° S 19:55:24 20° ESE
ATLAS 5 CENTAUR R/B 2.5 19:47:12 10° NNW 19:53:23 70° ENE 19:58:59 14° SE
Cosmos 1939 Rocket 4.3 19:52:48 16° E 19:54:15 20° ENE 19:57:07 10° NNE
SL-08 ROCKET BODY 4.4 19:49:07 10° S 19:55:09 86° E 20:01:08 10° N
Atlas Centaur 2 1.1 19:51:46 10° WNW 19:55:27 73° N 19:57:57 18° E
Cosmos 1408 3.8 19:55:09 20° ESE 19:56:26 24° E 19:59:25 10° NE
Sich 1 Rocket 3.7 19:53:04 10° S 19:57:33 58° E 20:02:03 10° NNE
Coronas F rocket 4.0 20:02:35 10° SW 20:04:40 21° W 20:06:46 10° NNW
CENTAUR R/B 3.2 19:58:16 10° NNW 20:06:23 81° WSW 20:14:07 12° SSE
SPOT 5 4.5 20:04:32 18° E 20:06:27 22° ENE 20:10:27 10° NNE
Centaur AC-119 1.0 20:03:59 10° W 20:06:43 53° S 20:06:57 49° SSE
Meteor 2-6 Rocket 4.4 20:00:55 10° N 20:06:44 58° E 20:11:18 16° SSE
Cosmos 1825 2.8 20:05:45 24° SE 20:07:26 36° E 20:10:57 10° NNE
Cosmos 1238 Rocket 4.3 20:04:45 10° NE 20:07:25 19° E 20:07:25 19° E
Cosmos 2278 Rocket 2.1 20:08:14 10° SSW 20:13:52 81° ESE 20:19:34 10° NNE
Cosmos 1844 Rocket 4.0 20:08:53 10° SW 20:14:13 43° WNW 20:19:35 10° N
COSMOS 2406 3.3 20:10:10 10° NNW 20:15:54 78° WSW 20:20:32 16° SSE
Cosmos 1975 Rocket 4.4 20:14:45 10° NNE 20:18:01 21° ENE 20:18:01 21° ENE
Meteosat 1 Rocket2 4.0 20:13:34 10° W 20:18:53 87° S 20:24:32 21° E
Cosmos 1844 4.5 20:13:52 10° SW 20:19:28 55° WNW 20:25:09 10° N
Cosmos 1908 Rocket 3.5 20:16:40 10° S 20:21:03 87° E 20:25:29 10° N
Cosmos 676 Rocket 4.3 20:16:41 10° N 20:21:41 46° ENE 20:23:44 31° SE
Abrixas 2.3 20:19:18 10° SW 20:22:18 68° SE 20:22:32 64° ESE
Meteor 2-10 Rocket 4.4 20:17:49 10° NNW 20:23:24 54° W 20:28:47 10° S
PSLV R/B 3.2 20:21:28 10° NW 20:24:54 77° NNE 20:25:34 54° ESE
COS B Rocket 3.3 20:21:44 10° NNE 20:25:22 44° E 20:25:27 44° E
Cosmos 2341 Rocket 4.0 20:19:57 10° S 20:26:10 64° E 20:32:22 10° NNE
Cosmos 1378 Rocket 3.8 20:24:33 10° N 20:28:42 46° E 20:29:29 41° ESE
CZ-4 DEB 3.6 20:29:20 27° SSW 20:30:43 46° W 20:33:46 10° NNW
SL-27 R/B 3.5 20:31:25 10° NNW 20:34:50 43° WSW 20:36:19 27° SSW
SL-8 Rocket 4.4 20:34:25 33° SE 20:36:24 42° E 20:42:13 10° NNE
Cosmos 962 Rocket 4.4 20:31:36 12° S 20:37:18 80° E 20:43:31 10° N
deb Chang Zheng 4 3.9 20:34:50 10° N 20:39:15 69° WNW 20:43:38 10° SSW
Cosmos 2082 Rocket 3.9 20:36:49 10° NNE 20:40:20 16° ENE 20:40:49 16° ENE
Nimbus 7 Rocket 4.5 20:39:34 10° N 20:45:32 81° WNW 20:51:33 10° SSW
ERBS 4.4 20:43:24 10° WNW 20:46:03 20° WSW 20:46:41 19° SW
Intercosmos 25 4.1 20:47:34 35° NE 20:47:34 35° NE 20:49:37 10° NNE
Cosmos 1862 4.3 20:44:56 14° SSW 20:48:11 45° W 20:52:07 10° N
Cosmos 2297 3.6 20:44:34 10° SSW 20:50:14 81° ESE 20:55:58 10° NNE
H-2A R/B 1.9 20:49:42 64° SSE 20:50:22 90° E 20:54:38 10° NNW
Envisat 2.9 20:49:14 43° S 20:50:56 87° WSW 20:56:02 10° NNW
Cosmos 1295 Rocket 4.4 20:51:39 30° S 20:54:59 79° E 21:01:17 10° N
SEDSat Delta rocket 2.8 20:52:25 10° W 20:56:48 78° N 20:56:52 78° N
COSMOS 2487 3.3 20:54:53 10° N 20:57:31 45° N 20:57:31 45° N
Cosmos 1606 3.6 20:55:38 10° NNW 20:59:22 45° W 21:00:04 40° SW
APEX 4.2 20:58:14 26° SW 20:59:59 48° WNW 21:04:21 10° N
deb Centaur AC-2 4.3 20:55:46 10° W 21:01:58 80° SSW 21:02:35 69° SE
ERS-1 Rocket 4.1 21:02:48 22° SSW 21:05:25 38° W 21:10:06 10° NNW
H-2A R/B 4.1 21:01:50 10° W 21:06:55 82° S 21:57:23 10° ESE
H-2A R/B 4.1 21:01:51 10° W 21:06:55 82° S 21:57:23 10° ESE
H-2A R/B 4.1 21:01:50 10° W 21:06:55 82° S 21:57:24 10° ESE
MetOp-B 4.0 21:06:48 69° ESE 21:07:15 74° ENE 21:12:36 10° N
Cosmos 489 Rocket 4.3 21:03:10 10° NNW 21:09:22 76° ENE 21:10:19 63° SE
Cosmos 2366 rocket 3.9 21:16:58 67° ESE 21:17:23 69° E 21:23:39 10° N
Okean 3 4.2 21:13:49 10° NNW 21:17:45 50° W 21:17:45 50° W
Cosmos 1140 Rocket 3.4 21:14:44 10° NNW 21:19:38 81° N 21:19:38 81° N
H-2A R/B 3.6 21:22:52 25° NE 21:22:52 25° NE 21:26:01 10° NNE
ARGOS 3.4 21:28:02 60° NNE 21:28:02 60° NNE 21:32:37 10° N
Timation 1 Rocket 4.2 21:29:58 82° NE 21:29:58 82° NE 21:35:43 10° NNE
CZ-4B R/B 3.7 21:25:34 10° N 21:30:09 62° WNW 21:30:09 62° WNW
USA 234 3.4 21:25:03 10° NE 21:30:12 55° ENE 21:30:12 55° ENE
Terra 3.8 21:35:40 20° NNE 21:35:40 20° NNE 21:37:30 10° NNE
OAO 3 Rocket 4.2 21:31:24 10° W 21:36:05 45° NNW 21:36:05 45° NNW
SPOT 1/Viking Rocket 3.8 21:37:46 64° NNW 21:37:46 64° NNW 21:42:11 10° NNW
Atlas Centaur 2 4.1 21:40:36 10° W 21:40:37 10° W 21:40:37 10° W
SPOT 5 4.2 21:43:47 35° WSW 21:44:10 35° W 21:49:02 10° NNW
Mugunghwa Rocket 4.4 21:37:36 10° WSW 21:45:11 68° SSW 21:45:11 68° SSW
Lacrosse 5 4.4 22:04:09 13° NNE 22:04:09 13° NNE 22:04:41 10° NNE
Cosmos 1833 Rocket 3.6 21:55:21 10° NNW 21:59:10 43° N 21:59:10 43° N
Cosmos 1727 Rocket 4.4 22:02:06 10° N 22:07:08 59° NW 22:07:08 59° NW
USA 229 DEB 4.1 22:15:05 10° NNW 22:20:58 64° NNW 22:20:58 64° NNW
USA 229 4.1 22:15:12 10° NNW 22:21:04 64° NNW 22:21:04 64° NNW
Cosmos 2082 Rocket 3.5 22:19:11 10° NNW 22:22:40 35° NW 22:22:40 35° NW
H-2A R/B 4.4 23:03:31 18° NW 23:03:31 18° NW 23:05:15 10° NW
Cosmos 2369 Rocket 4.3 23:08:35 21° N 23:08:35 21° N 23:10:30 10° N
